TimeCDT,TemperatureF,Dew PointF,Humidity,Sea Level PressureIn,VisibilityMPH,Wind Direction,Wind SpeedMPH,Gust SpeedMPH,PrecipitationIn,Events,Conditions,WindDirDegrees,DateUTC
12:15 AM,51.8,30.2,44,30.13,10.0,SSE,8.1,-,N/A,,Clear,160,2012-10-30 05:15:00
12:35 AM,50.0,30.2,47,30.13,10.0,SSE,6.9,-,N/A,,Clear,160,2012-10-30 05:35:00
12:55 AM,44.6,32.0,61,30.13,10.0,South,4.6,-,N/A,,Clear,180,2012-10-30 05:55:00
1:15 AM,46.4,32.0,57,30.13,10.0,South,4.6,-,N/A,,Clear,180,2012-10-30 06:15:00
1:35 AM,46.4,32.0,57,30.12,10.0,SSE,6.9,-,N/A,,Clear,160,2012-10-30 06:35:00
1:55 AM,48.2,32.0,54,30.11,10.0,SSE,6.9,-,N/A,,Clear,160,2012-10-30 06:55:00
2:15 AM,50.0,32.0,50,30.11,10.0,SSE,9.2,-,N/A,,Clear,160,2012-10-30 07:15:00
2:35 AM,48.2,32.0,54,30.11,10.0,SSE,8.1,-,N/A,,Clear,160,2012-10-30 07:35:00
2:55 AM,48.2,33.8,58,30.11,10.0,South,6.9,-,N/A,,Clear,170,2012-10-30 07:55:00
3:35 AM,42.8,33.8,70,30.10,10.0,South,4.6,-,N/A,,Clear,180,2012-10-30 08:35:00
3:55 AM,44.6,33.8,66,30.10,10.0,South,3.5,-,N/A,,Clear,190,2012-10-30 08:55:00
4:15 AM,42.8,33.8,70,30.10,10.0,South,4.6,-,N/A,,Clear,170,2012-10-30 09:15:00
4:35 AM,42.8,33.8,70,30.10,10.0,South,5.8,-,N/A,,Clear,170,2012-10-30 09:35:00
4:55 AM,42.8,33.8,70,30.10,10.0,South,4.6,-,N/A,,Clear,170,2012-10-30 09:55:00
5:35 AM,42.8,33.8,70,30.10,10.0,South,6.9,-,N/A,,Clear,170,2012-10-30 10:35:00
5:55 AM,42.8,33.8,70,30.10,10.0,South,5.8,-,N/A,,Clear,170,2012-10-30 10:55:00
6:15 AM,42.8,33.8,70,30.10,10.0,South,8.1,-,N/A,,Clear,170,2012-10-30 11:15:00
6:35 AM,42.8,33.8,70,30.09,10.0,SSE,8.1,-,N/A,,Clear,160,2012-10-30 11:35:00
6:55 AM,44.6,33.8,66,30.08,10.0,South,8.1,-,N/A,,Clear,170,2012-10-30 11:55:00
7:15 AM,44.6,33.8,66,30.08,10.0,South,8.1,-,N/A,,Clear,170,2012-10-30 12:15:00
7:35 AM,42.8,33.8,70,30.08,10.0,South,8.1,-,N/A,,Clear,170,2012-10-30 12:35:00
7:55 AM,42.8,33.8,70,30.08,10.0,South,8.1,-,N/A,,Clear,170,2012-10-30 12:55:00
8:15 AM,42.8,33.8,70,30.08,10.0,South,8.1,-,N/A,,Clear,170,2012-10-30 13:15:00
8:35 AM,46.4,33.8,62,30.08,10.0,South,6.9,-,N/A,,Clear,170,2012-10-30 13:35:00
8:55 AM,48.2,35.6,62,30.09,10.0,South,4.6,-,N/A,,Clear,180,2012-10-30 13:55:00
9:15 AM,53.6,35.6,51,30.08,10.0,South,4.6,-,N/A,,Clear,180,2012-10-30 14:15:00
9:35 AM,57.2,33.8,41,30.08,10.0,SSW,12.7,17.3,N/A,,Clear,200,2012-10-30 14:35:00
10:15 AM,59.0,33.8,39,30.08,10.0,SSW,8.1,11.5,N/A,,Clear,200,2012-10-30 15:15:00
10:35 AM,60.8,33.8,36,30.08,10.0,SSW,6.9,-,N/A,,Clear,210,2012-10-30 15:35:00
10:55 AM,62.6,35.6,37,30.08,10.0,SSW,11.5,-,N/A,,Clear,210,2012-10-30 15:55:00
11:15 AM,64.4,35.6,34,30.07,10.0,SSW,11.5,-,N/A,,Clear,210,2012-10-30 16:15:00
11:55 AM,68.0,37.4,33,30.07,10.0,SW,8.1,-,N/A,,Clear,230,2012-10-30 16:55:00
12:15 PM,68.0,37.4,33,30.05,10.0,SSW,10.4,-,N/A,,Clear,210,2012-10-30 17:15:00
12:35 PM,69.8,37.4,31,30.05,10.0,SW,9.2,-,N/A,,Clear,230,2012-10-30 17:35:00
12:55 PM,69.8,37.4,31,30.04,10.0,WSW,4.6,-,N/A,,Clear,240,2012-10-30 17:55:00
1:15 PM,71.6,39.2,31,30.03,10.0,SW,8.1,-,N/A,,Clear,230,2012-10-30 18:15:00
1:35 PM,71.6,37.4,29,30.01,10.0,SSW,6.9,-,N/A,,Clear,210,2012-10-30 18:35:00
1:55 PM,71.6,37.4,29,30.00,10.0,WSW,6.9,-,N/A,,Clear,240,2012-10-30 18:55:00
2:15 PM,73.4,37.4,27,30.00,10.0,SW,8.1,-,N/A,,Clear,230,2012-10-30 19:15:00
2:35 PM,73.4,39.2,29,29.98,10.0,WSW,8.1,-,N/A,,Clear,240,2012-10-30 19:35:00
2:55 PM,73.4,37.4,27,29.98,10.0,SW,11.5,16.1,N/A,,Clear,230,2012-10-30 19:55:00
3:15 PM,73.4,37.4,27,29.97,10.0,SW,9.2,16.1,N/A,,Clear,220,2012-10-30 20:15:00
3:35 PM,75.2,39.2,27,29.96,10.0,SW,10.4,-,N/A,,Clear,220,2012-10-30 20:35:00
3:55 PM,75.2,39.2,27,29.96,10.0,SSW,10.4,-,N/A,,Clear,210,2012-10-30 20:55:00
4:15 PM,75.2,37.4,25,29.96,10.0,SSW,8.1,-,N/A,,Clear,200,2012-10-30 21:15:00
4:35 PM,75.2,37.4,25,29.95,10.0,SW,9.2,16.1,N/A,,Clear,230,2012-10-30 21:35:00
4:55 PM,75.2,37.4,25,29.95,10.0,SW,10.4,-,N/A,,Clear,220,2012-10-30 21:55:00
5:15 PM,75.2,37.4,25,29.95,10.0,SW,9.2,-,N/A,,Clear,230,2012-10-30 22:15:00
5:35 PM,73.4,37.4,27,29.95,10.0,SSW,10.4,-,N/A,,Clear,210,2012-10-30 22:35:00
6:15 PM,71.6,39.2,31,29.95,10.0,SSW,6.9,-,N/A,,Clear,200,2012-10-30 23:15:00
6:35 PM,68.0,37.4,33,29.95,10.0,SSW,6.9,-,N/A,,Clear,200,2012-10-30 23:35:00
7:15 PM,62.6,41.0,45,29.94,10.0,SSW,9.2,-,N/A,,Clear,200,2012-10-31 00:15:00
7:35 PM,60.8,41.0,48,29.94,10.0,South,9.2,-,N/A,,Clear,190,2012-10-31 00:35:00
7:55 PM,62.6,41.0,45,29.94,10.0,South,9.2,-,N/A,,Clear,190,2012-10-31 00:55:00
8:15 PM,64.4,39.2,40,29.94,10.0,SSW,10.4,-,N/A,,Clear,210,2012-10-31 01:15:00
8:35 PM,62.6,39.2,42,29.94,10.0,SSW,9.2,-,N/A,,Clear,210,2012-10-31 01:35:00
8:55 PM,60.8,41.0,48,29.95,10.0,SSW,8.1,-,N/A,,Clear,210,2012-10-31 01:55:00
9:15 PM,60.8,39.2,45,29.95,10.0,SSW,5.8,-,N/A,,Clear,210,2012-10-31 02:15:00
9:35 PM,59.0,41.0,51,29.95,10.0,South,5.8,-,N/A,,Clear,190,2012-10-31 02:35:00
9:55 PM,59.0,41.0,51,29.95,10.0,SSW,5.8,-,N/A,,Clear,200,2012-10-31 02:55:00
10:15 PM,57.2,41.0,55,29.96,10.0,SSW,5.8,-,N/A,,Clear,200,2012-10-31 03:15:00
10:35 PM,59.0,41.0,51,29.96,10.0,SSW,3.5,-,N/A,,Clear,200,2012-10-31 03:35:00
10:55 PM,55.4,41.0,58,29.96,10.0,SW,6.9,-,N/A,,Clear,220,2012-10-31 03:55:00
11:15 PM,55.4,41.0,58,29.96,10.0,SSW,8.1,-,N/A,,Clear,210,2012-10-31 04:15:00
11:35 PM,55.4,41.0,58,29.96,10.0,SSW,8.1,-,N/A,,Clear,210,2012-10-31 04:35:00
11:55 PM,55.4,41.0,58,29.95,10.0,SSW,8.1,-,N/A,,Clear,210,2012-10-31 04:55:00